"Time","Temp","Dewpoint","Humidity","Pressure","Direction","Speed","Gust","Precip","PrecipRate"
"00:04:58","72.6","71.7","97","29.99","283","0","0","0.00","0.00"
"00:09:57","72.6","71.7","97","29.99","283","0","0","0.00","0.00"
"00:14:56","72.5","71.6","97","29.99","283","0","0","0.00","0.00"
"00:19:57","72.5","71.6","97","29.99","283","0","0","0.00","0.00"
"00:24:57","72.5","71.6","97","29.99","283","0","0","0.00","0.00"
"00:29:58","72.4","71.5","97","29.99","283","0","0","0.00","0.00"
"00:34:58","72.3","71.4","97","29.99","283","0","0","0.00","0.00"
"00:39:59","72.2","71.3","97","29.99","283","0","0","0.00","0.00"
"00:44:59","72.2","71.3","97","30.00","283","0","0","0.00","0.00"
"00:49:56","72.3","71.4","97","30.00","283","0","0","0.00","0.00"
"00:54:56","72.3","71.4","97","30.00","283","0","0","0.00","0.00"
"00:59:56","72.3","71.4","97","30.01","283","0","0","0.00","0.00"
"01:04:57","72.3","71.4","97","30.01","283","0","0","0.00","0.00"
"01:09:57","72.4","71.7","97.7","30.01","283","0","0","0.00","0.00"
"01:14:58","72.3","71.6","97.6","30.01","283","0","0","0.00","0.00"
"01:19:58","72.3","71.4","97","30.01","283","0","0","0.00","0.00"
"01:24:56","72.3","71.4","97","30.01","283","0","0","0.00","0.00"
"01:29:56","72.3","71.4","97","30.01","283","0","0","0.00","0.00"
"01:34:59","72.2","71.3","97","30.01","283","0","0","0.00","0.00"
"01:39:57","72","71.1","97","30.01","283","0","0","0.00","0.00"
"01:44:57","72.1","71.4","97.9","30.01","283","0","0","0.00","0.00"
"01:49:58","72.1","71.2","97","30.00","283","0","0","0.00","0.00"
"01:54:58","72.1","71.2","97","30.00","283","0","0","0.00","0.00"
"01:59:59","72","71.2","97.2","30.00","283","0","0","0.00","0.00"
"02:04:59","72.1","71.4","97.6","30.00","283","0","0","0.00","0.00"
"02:09:59","72.1","71.4","97.8","30.00","283","0","0","0.00","0.00"
"02:14:56","72","71.1","97.2","30.01","283","0","0","0.00","0.00"
"02:19:57","71.8","70.9","97","30.01","283","0","0","0.00","0.00"
"02:24:57","71.7","71","97.5","30.01","283","0","0","0.00","0.00"
"02:29:57","71.7","70.9","97.5","30.01","283","0","0","0.00","0.00"
"02:34:58","71.7","70.9","97.3","30.01","283","0","0","0.00","0.00"
"02:39:59","71.8","71.2","98","30.01","283","0","0","0.00","0.00"
"02:44:59","71.9","71.3","98","30.01","283","0","0","0.00","0.00"
"02:49:56","71.9","71.3","98","30.01","283","0","0","0.00","0.00"
"02:54:56","71.9","71.3","98","30.01","283","0","0","0.00","0.00"
"02:59:56","71.9","71.3","98","30.01","283","0","0","0.00","0.00"
"03:04:58","72","71.4","98","30.00","283","0","0","0.00","0.00"
"03:09:58","71.9","71.3","98","30.00","283","0","0","0.00","0.00"
"03:14:59","71.9","71.3","98","30.00","283","0","0","0.00","0.00"
"03:19:56","71.9","71.3","98","30.00","283","0","0","0.00","0.00"
"03:24:56","72","71.4","98","30.00","283","0","0","0.00","0.00"
"03:29:57","71.9","71.3","98","30.00","283","0","0","0.00","0.00"
"03:34:57","71.9","71.3","98","30.00","278","0","0","0.00","0.00"
"03:39:58","71.9","71.3","98","30.00","278","0","0","0.00","0.00"
"03:44:59","71.9","71.3","98","30.00","278","0","0","0.00","0.00"
"03:49:59","71.8","71.2","98","29.99","278","0","0","0.00","0.00"
"03:54:59","71.8","71.2","98","29.99","278","0","0","0.00","0.00"
"03:59:59","71.8","71.2","98","29.99","278","0","0","0.00","0.00"
"04:04:56","71.9","71.3","98","29.99","278","0","0","0.00","0.00"
"04:09:59","71.8","71.2","98","29.99","278","0","0","0.00","0.00"
"04:14:59","71.7","71.1","98","29.99","278","0","0","0.00","0.00"
"04:19:56","71.6","71","98","29.99","278","0","0","0.00","0.00"
"04:24:57","71.5","70.9","98","29.99","278","0","0","0.00","0.00"
"04:29:58","71.5","70.9","98","30.00","278","0","0","0.00","0.00"
"04:34:57","71.4","70.8","98","30.00","278","0","0","0.00","0.00"
"04:39:56","71.4","70.8","98","30.00","278","0","0","0.00","0.00"
"04:44:56","71.4","70.8","98","30.01","278","0","0","0.00","0.00"
"04:49:56","71.5","70.9","98","30.01","278","0","0","0.00","0.00"
"04:54:56","71.4","70.8","98","30.01","278","0","0","0.00","0.00"
"04:59:56","71.3","70.7","98","30.01","278","0","0","0.00","0.00"
"05:04:57","71.2","70.6","98","30.01","278","0","0","0.00","0.00"
"05:09:57","71.2","70.6","98","30.01","278","0","0","0.00","0.00"
"05:14:58","71.2","70.6","98","30.01","278","0","0","0.00","0.00"
"05:19:58","71.2","70.6","98","30.01","278","0","0","0.00","0.00"
"05:24:58","71.2","70.6","98","30.01","278","0","0","0.00","0.00"
"05:29:58","71.2","70.6","98","30.02","278","0","0","0.00","0.00"
"05:34:58","71.1","70.5","98","30.02","278","0","0","0.00","0.00"
"05:39:59","71.1","70.5","98","30.02","278","0","0","0.00","0.00"
"05:44:59","71.1","70.5","98","30.03","278","0","0","0.00","0.00"
"05:49:56","71","70.4","98","30.03","278","0","0","0.00","0.00"
"05:54:59","71","70.4","98","30.03","278","0","0","0.00","0.00"
"05:59:59","70.9","70.3","98","30.03","278","0","0","0.00","0.00"
"06:04:59","70.8","70.2","98","30.03","278","0","0","0.00","0.00"
"06:09:56","70.7","70.1","98","30.03","278","0","0","0.00","0.00"
"06:14:57","70.7","70.1","98","30.03","278","0","0","0.00","0.00"
"06:19:57","70.8","70.2","98","30.03","278","0","0","0.00","0.00"
"06:24:57","70.8","70.2","98","30.03","278","0","0","0.00","0.00"
"06:29:57","70.9","70.3","98","30.04","278","0","0","0.00","0.00"
"06:34:56","70.9","70.3","98","30.04","278","0","0","0.00","0.00"
"06:39:57","71","70.4","98","30.04","278","0","0","0.00","0.00"
"06:44:59","71","70.4","98","30.04","278","0","0","0.00","0.00"
"06:49:59","71.2","70.6","98","30.04","278","0","0","0.00","0.00"
"06:54:58","71.4","70.8","98","30.04","278","0","0","0.00","0.00"
"06:59:57","71.5","70.9","98","30.04","278","0","0","0.00","0.00"
"07:04:58","71.7","71.1","98","30.04","278","0","0","0.00","0.00"
"07:09:57","71.8","71.2","98","30.04","278","0","0","0.00","0.00"
"07:14:57","72.1","71.5","98","30.04","278","0","0","0.00","0.00"
"07:19:56","72.6","72.2","98.7","30.04","278","0","0","0.00","0.00"
"07:24:59","73.1","72.6","98.3","30.04","278","0","0","0.00","0.00"
"07:29:58","73.3","72.7","98","30.04","278","0","0","0.00","0.00"
"07:34:57","73.4","72.8","98","30.04","278","0","0","0.00","0.00"
"07:39:57","73.7","73.1","98","30.04","278","0","0","0.00","0.00"
"07:44:59","74","73.4","98","30.05","278","0","0","0.00","0.00"
"07:49:57","74.3","73.7","98","30.05","278","0","0","0.00","0.00"
"07:54:58","74.7","74.1","98","30.05","278","0","0","0.00","0.00"
"07:59:59","74.9","74.3","98","30.06","278","0","0","0.00","0.00"
"08:04:59","75.1","74.3","97.2","30.06","278","0","0","0.00","0.00"
"08:09:59","75.8","74.6","96","30.06","257","0","0","0.00","0.00"
"08:14:59","76.5","75","95","30.06","225","0","0","0.00","0.00"
"08:19:58","77","75.2","94.2","30.05","225","0","0","0.00","0.00"
"08:24:57","77.6","75.5","93.4","30.05","225","0","0","0.00","0.00"
"08:29:56","78.2","75.7","92","30.05","225","0","0","0.00","0.00"
"08:34:59","78.7","75.8","91","30.05","225","0","0","0.00","0.00"
"08:39:57","79.2","76.1","90.3","30.05","225","0","0","0.00","0.00"
"08:44:57","79.7","76.4","89.7","30.06","225","0","0","0.00","0.00"
"08:49:58","80.1","76.4","88.5","30.06","225","0","0","0.00","0.00"
"08:54:58","80.4","76.5","88","30.06","225","0","0","0.00","0.00"
"08:59:59","80.8","76.5","86.7","30.06","225","0","0","0.00","0.00"
"09:04:57","81.4","76.3","84.4","30.06","225","0","0","0.00","0.00"
"09:09:59","82.1","76.4","83","30.06","225","0","0","0.00","0.00"
"09:14:56","82.7","76.7","81.9","30.06","225","0","0","0.00","0.00"
"09:19:57","83.6","77","80.6","30.06","225","0","0","0.00","0.00"
"09:24:57","84.2","77.3","79.8","30.06","225","0","0","0.00","0.00"
"09:29:57","84.5","77","78.1","30.06","225","0","0","0.00","0.00"
"09:34:58","84.8","76.8","77","30.05","225","0","0","0.00","0.00"
"09:39:59","85.2","77.3","77.3","30.05","225","0","0","0.00","0.00"
"09:44:59","85.8","77.1","75.4","30.05","225","0","0","0.00","0.00"
"09:49:56","86.1","77.1","74.7","30.05","229","0","0","0.00","0.00"
"09:54:56","86.4","75.7","70.5","30.05","229","0","0","0.00","0.00"
"09:59:57","86.6","75.8","70.5","30.06","229","0","0","0.00","0.00"
"10:04:59","86.9","76.3","70.8","30.06","350","0","0","0.00","0.00"
"10:09:56","87.2","75.6","68.7","30.06","350","0.6","4.8","0.00","0.00"
"10:14:56","87.1","75.5","68.6","30.06","301","0","0","0.00","0.00"
"10:19:57","87.4","75.7","68.3","30.06","305","0","1.2","0.00","0.00"
"10:24:57","87.7","75.4","67","30.06","219","0","0","0.00","0.00"
"10:29:58","88","75.2","66","30.06","337","0.1","2.4","0.00","0.00"
"10:34:58","88.1","74.5","64.4","30.06","333","0","2.3","0.00","0.00"
"10:39:59","88.3","75.1","65.1","30.06","332","0","0","0.00","0.00"
"10:44:59","88.6","75.5","65.5","30.06","334","0","1.2","0.00","0.00"
"10:49:56","88.7","75.7","65.7","30.05","335","0","1.2","0.00","0.00"
"10:54:56","88.8","75.1","64.1","30.05","321","0","0","0.00","0.00"
"10:59:57","89","75.4","64.5","30.05","321","0","0","0.00","0.00"
"11:04:58","89.2","76.1","65.5","30.05","334","0.2","4.8","0.00","0.00"
"11:09:56","89.4","76.1","64.9","30.05","336","0.5","4.8","0.00","0.00"
"11:14:57","89.7","75.4","62.9","30.05","328","0.1","4.6","0.00","0.00"
"11:19:58","90","75.7","63.1","30.04","353","1.4","7.2","0.00","0.00"
"11:24:56","90.1","75.8","63","30.04","341","0.7","6.9","0.00","0.00"
"11:29:59","90.2","75.9","63.1","30.04","360","0","2.3","0.00","0.00"
"11:34:56","90.7","76.4","63.2","30.04","355","0","0","0.00","0.00"
"11:39:58","91","75.9","61.4","30.04","221","0.3","4.8","0.00","0.00"
"11:44:59","91.2","76.6","62.4","30.04","238","0.8","4.8","0.00","0.00"
"11:49:56","91.2","76.2","61.6","30.04","211","0.7","4.8","0.00","0.00"
"11:54:56","91.6","76.7","62.1","30.04","181","1.7","4.6","0.00","0.00"
"11:59:58","91.7","77.1","62.5","30.04","151","0.6","2.4","0.00","0.00"
"12:04:59","91.9","77","61.9","30.04","163","1","3.6","0.00","0.00"
"12:09:56","91.9","77.1","62.2","30.04","157","0.9","4.8","0.00","0.00"
"12:14:58","92","77.2","62.2","30.04","5","1.1","4.8","0.00","0.00"
"12:19:59","92.5","77.3","61.5","30.03","347","0.8","6","0.00","0.00"
"12:24:59","92.8","77.1","60.4","30.03","224","3.4","6","0.00","0.00"
"12:29:56","93","77.7","61.5","30.03","295","2.2","6","0.00","0.00"
"12:34:57","93.1","77.4","60.6","30.02","199","2.4","7.2","0.00","0.00"
"12:39:58","92.7","76.8","59.9","30.02","253","2.6","6.9","0.00","0.00"
"12:44:59","92.8","77.3","60.7","30.02","315","2.9","6","0.00","0.00"
"12:49:56","93.3","77.3","60","30.02","211","2.9","6","0.00","0.00"
"12:54:56","93.1","77.1","59.9","30.02","341","2.6","6","0.00","0.00"
"12:59:57","93.2","77.5","60.5","30.02","270","2.7","6","0.00","0.00"
"13:04:59","93.4","77.3","59.9","30.02","188","2.7","6","0.00","0.00"
"13:09:56","93.3","76.8","59","30.02","149","1.3","6","0.00","0.00"
"13:14:57","94","78.4","60.8","30.02","190","1.9","6","0.00","0.00"
"13:19:58","94.7","78.2","59.2","30.01","212","2","4.8","0.00","0.00"
"13:24:59","93.8","76.9","58.3","30.01","296","2.6","6","0.00","0.00"
"13:29:56","93.3","77.2","59.9","30.01","340","1.1","8.4","0.00","0.00"
"13:34:56","93.9","77.5","59.1","30.01","287","2","8.1","0.00","0.00"
"13:39:59","94.3","77.8","59.1","30.01","233","0.2","2.4","0.00","0.00"
"13:44:59","94.8","77.9","58.3","30.01","340","3.1","8.4","0.00","0.00"
"13:49:56","94.9","78.4","59.1","30.00","352","2.3","6.9","0.00","0.00"
"13:54:57","95.4","78.5","58.6","30.00","207","2.5","6","0.00","0.00"
"13:59:58","95.5","77","55.4","30.00","234","2.5","4.8","0.00","0.00"
"14:04:59","95.3","76.9","55.6","29.99","244","2.4","6","0.00","0.00"
"14:09:57","95","76.9","56.3","29.99","304","1.2","6","0.00","0.00"
"14:14:58","95.1","76.7","55.6","29.99","311","2.9","6","0.00","0.00"
"14:19:59","95.6","77.4","56","29.99","338","2.7","6","0.00","0.00"
"14:24:59","95.9","77.2","55.2","29.99","212","2.5","6","0.00","0.00"
"14:29:56","95.8","76.4","53.8","29.99","236","2.3","8.4","0.00","0.00"
"14:34:57","95.4","76.4","54.6","29.98","233","1.6","6","0.00","0.00"
"14:39:59","95.7","77.6","56.3","29.98","201","1.2","6","0.00","0.00"
"14:44:56","96.8","77.3","53.7","29.98","229","3.4","7.2","0.00","0.00"
"14:49:56","97.2","76.9","52.5","29.98","222","3.6","7.2","0.00","0.00"
"14:54:57","98","78.3","53.8","29.98","211","3.7","7.2","0.00","0.00"
"14:59:58","98.2","77.4","51.7","29.98","197","1.8","8.4","0.00","0.00"
"15:04:56","98","77.5","52.2","29.97","217","3.3","8.4","0.00","0.00"
"15:09:57","97.9","77.4","52.4","29.97","227","3.4","10.8","0.00","0.00"
"15:14:58","98.1","78.1","53.2","29.97","173","2.7","8.4","0.00","0.00"
"15:19:59","97.6","76.6","51.3","29.96","141","3.3","8.4","0.00","0.00"
"15:24:56","97","76.6","52.2","29.96","141","3.6","8.1","0.00","0.00"
"15:29:57","97.2","76.2","51.2","29.96","201","3.4","7.2","0.00","0.00"
"15:34:56","97.8","77.3","52.1","29.95","160","3.2","12","0.00","0.00"
"15:39:58","97.6","76.4","51","29.95","189","4.9","12","0.00","0.00"
"15:44:58","97.6","76.5","51.1","29.95","170","2.7","6","0.00","0.00"
"15:49:59","97.7","76.8","51.6","29.94","185","2.9","7.2","0.00","0.00"
"15:54:56","98.1","76.8","50.9","29.94","191","2.9","8.4","0.00","0.00"
"15:59:57","98.5","76.8","50.3","29.94","160","2.6","7.2","0.00","0.00"
"16:04:59","98.6","76.4","49.5","29.93","157","3.3","7.2","0.00","0.00"
"16:09:59","98.4","76.5","49.9","29.93","149","2.8","8.4","0.00","0.00"
"16:14:56","98.4","76.5","50","29.93","160","2.5","12","0.00","0.00"
"16:19:57","98.5","76.1","49.1","29.93","177","4.4","12","0.00","0.00"
"16:24:58","98.7","77.1","50.4","29.93","185","3.2","7.2","0.00","0.00"
"16:29:58","98.9","77.3","50.4","29.93","187","3.6","8.4","0.00","0.00"
"16:34:59","98.5","76.4","49.7","29.92","164","3.6","10.8","0.00","0.00"
"16:39:56","98.2","77.2","51.4","29.92","156","2.2","5.8","0.00","0.00"
"16:44:57","97.6","76.9","51.8","29.92","145","2.8","7.2","0.00","0.00"
"16:49:57","96.6","76.3","52.3","29.92","173","3.7","7.2","0.00","0.00"
"16:54:58","95.7","75.9","53.3","29.92","180","2.8","6.9","0.00","0.00"
"16:59:59","95.1","75.8","53.9","29.92","182","2.2","4.8","0.00","0.00"
"17:04:56","94.7","76.4","55.6","29.92","180","2.3","4.8","0.00","0.00"
"17:09:57","94.2","76.7","57.2","29.92","161","1.8","8.4","0.00","0.00"
"17:14:58","94","76.4","57","29.92","148","3.6","8.1","0.00","0.00"
"17:19:59","93.8","76.8","58","29.92","172","2.4","8.4","0.00","0.00"
"17:24:56","93.6","76.8","58.5","29.92","182","3.2","6","0.00","0.00"
"17:29:57","93.4","76.9","59","29.92","186","3","12","0.00","0.00"
"17:34:58","93.2","77.3","60.1","29.92","201","3.9","13.2","0.00","0.00"
"17:39:56","93","77.8","61.4","29.92","206","1.9","4.6","0.00","0.00"
"17:44:56","92.7","77.8","62","29.93","207","2.2","6","0.00","0.00"
"17:49:57","92.4","77.6","62.2","29.93","214","2.5","4.8","0.00","0.00"
"17:54:58","92.1","76.4","60.5","29.93","220","2.6","8.4","0.00","0.00"
"17:59:59","91.7","75.6","59.7","29.93","275","2.7","7.2","0.00","0.00"
"18:04:56","91.1","75.4","60.2","29.92","238","2.6","7.2","0.00","0.00"
"18:09:57","90.6","74.8","60.1","29.92","325","2.9","6","0.00","0.00"
"18:14:58","90.2","75.1","61.4","29.94","354","3","8.4","0.00","0.00"
"18:19:59","89.4","74.1","60.7","29.94","327","4.7","13.2","0.00","0.00"
"18:24:56","88.1","73","61.2","29.94","355","3","8.1","0.00","0.00"
"18:29:57","87.4","73.2","62.8","29.95","331","3","7.2","0.00","0.00"
"18:34:58","86.7","73","63.8","29.95","331","2.4","7.2","0.00","0.00"
"18:39:56","86.1","72.8","64.6","29.95","352","1.7","4.8","0.00","0.00"
"18:44:57","85.7","72.9","65.8","29.97","349","1.6","4.8","0.00","0.00"
"18:49:58","85.5","73.5","67.5","29.97","329","1.5","7.2","0.00","0.00"
"18:54:59","85","73.5","68.6","29.97","329","1.1","6.9","0.00","0.00"
"18:59:56","84.6","73.5","69.5","29.97","327","1.8","4.8","0.00","0.00"
"19:04:57","84.3","73.9","70.9","29.97","298","2.3","7.2","0.00","0.00"
"19:09:58","84.2","72.5","68.1","29.97","270","3.6","8.4","0.00","0.00"
"19:14:59","83.9","72.5","68.8","29.98","261","2.2","8.1","0.00","0.00"
"19:19:58","83.6","72.6","69.6","29.98","283","1.1","3.6","0.00","0.00"
"19:24:58","83.2","72.4","69.9","29.98","247","3.3","8.4","0.00","0.00"
"19:29:59","82.9","72.1","70.1","29.98","256","3.5","8.1","0.00","0.00"
"19:34:59","82.7","71.6","69.3","29.97","228","3.9","12","0.00","0.00"
"19:39:57","82.3","70.7","68","29.97","231","4.9","12","0.00","0.00"
"19:44:57","81.9","70.8","69.2","29.97","228","3.7","7.2","0.00","0.00"
"19:49:58","81.4","71","70.8","29.96","228","2.8","6","0.00","0.00"
"19:54:59","81","71.1","72.1","29.96","212","2.6","5.8","0.00","0.00"
"19:59:59","80.5","71.3","73.7","29.96","210","2.2","4.8","0.00","0.00"
"20:04:57","80","71","74","29.95","203","1.5","3.6","0.00","0.00"
"20:09:58","79.6","71.1","75.3","29.95","202","2.5","4.8","0.00","0.00"
"20:14:57","79.2","71","76","29.96","202","1.6","3.6","0.00","0.00"
"20:19:59","78.9","71","76.8","29.96","202","1","3.5","0.00","0.00"
"20:24:59","78.7","71.1","77.5","29.96","202","0.4","2.4","0.00","0.00"
"20:29:59","78.4","71.2","78.8","29.96","201","0.8","2.4","0.00","0.00"
"20:34:59","78","71.3","80","29.95","201","1.1","3.6","0.00","0.00"
"20:39:58","77.5","71","80.6","29.95","173","1.4","4.8","0.00","0.00"
"20:44:59","77.2","70.9","81","29.95","130","0.7","4.8","0.00","0.00"
"20:49:59","77","71.1","81.8","29.94","132","1.5","4.8","0.00","0.00"
"20:54:58","76.8","71.1","82.5","29.94","140","2.5","4.8","0.00","0.00"
"20:59:58","76.7","71.1","83","29.98","169","3.3","10.8","0.00","0.00"
"21:04:58","76.4","71.1","83.7","29.98","188","4.3","13.2","0.00","0.00"
"21:09:57","76","71.1","84.6","29.98","169","4.1","12.7","0.00","0.00"
"21:14:58","75.7","71","85.3","29.98","187","2","4.8","0.00","0.00"
"21:19:58","75.5","71","86","29.98","187","1","3.6","0.00","0.00"
"21:24:58","75.3","70.8","86","29.98","187","1.3","2.4","0.00","0.00"
"21:29:57","75.2","70.9","86.6","29.98","181","1.9","3.6","0.00","0.00"
"21:34:57","75.1","71","87","29.97","175","1.1","3.6","0.00","0.00"
"21:39:58","75","70.9","87","29.97","175","1","2.4","0.00","0.00"
"21:44:58","74.9","70.8","87","29.98","343","1.7","6","0.00","0.00"
"21:49:58","74.9","71.1","87.7","29.98","355","1.2","3.5","0.00","0.00"
"21:54:57","74.9","71.1","88","29.98","347","1.2","3.6","0.00","0.00"
"21:59:57","74.9","71.1","88","29.98","344","0.6","3.6","0.00","0.00"
"22:04:58","75","71.1","87.7","29.98","344","0.2","1.2","0.00","0.00"
"22:09:57","75.1","71.2","87.7","29.98","344","0.4","2.4","0.00","0.00"
"22:14:58","75.1","71.2","87.6","29.99","343","3","7.2","0.00","0.00"
"22:19:58","75.2","71.1","87","29.99","310","2.3","4.8","0.00","0.00"
"22:24:57","75.3","71.2","87","29.99","110","2.8","7.2","0.00","0.00"
"22:29:57","75.3","71.2","87","29.99","267","2","8.4","0.00","0.00"
"22:34:56","75.3","71.2","87","29.99","263","2.8","8.4","0.00","0.00"
"22:39:57","75.4","71.3","87","29.99","310","2","8.4","0.00","0.00"
"22:44:57","75.3","71.2","87","29.99","327","1.6","3.6","0.00","0.00"
"22:49:57","75.3","71.2","87","29.98","326","1.2","4.8","0.00","0.00"
"22:54:57","75.3","71.2","87","29.98","343","1.9","4.8","0.00","0.00"
"22:59:57","75.3","71.2","87","29.98","341","0.3","3.6","0.00","0.00"
"23:04:57","75.4","71.3","87","29.98","340","1.2","4.8","0.00","0.00"
"23:09:57","75.5","71.4","87.1","29.98","338","0.9","4.8","0.00","0.00"
"23:14:57","75.6","71.8","87.9","29.98","278","0.9","4.8","0.01","0.00"
"23:19:57","75.6","71.9","88.2","29.96","243","0.1","2.3","0.01","0.01"
"23:24:57","75.5","72","89","29.96","243","0.1","1.2","0.01","0.01"
"23:29:57","75.4","72.2","89.9","29.96","257","1.5","6","0.02","0.02"
"23:34:56","75.1","72.2","90.7","29.96","239","2","7.2","0.02","0.02"
"23:39:57","75","72.2","91","29.96","225","0.6","3.6","0.02","0.02"
"23:44:56","74.9","72.1","91","29.96","269","0.9","3.6","0.02","0.02"
"23:49:57","74.9","72.1","91","29.96","280","0","1.2","0.02","0.02"
